EW5961 Weather Reports


time (UTC)temp
C
wind
direction
speed
KPH
gust
KPH
rain 1hr
cm
rain 24hr
cm
rain mn
cm
humidity
%
barometer
mb
20260831124551 26 42 4.8 6.4 0.00 0.00 0.00 85 1014.7
20260831123048 26 106 0.0 9.7 0.00 0.00 0.00 85 1014.5
20260831121547 26 128 0.0 4.8 0.00 0.00 0.00 86 1014.3
20260831120152 25 50 3.2 11.3 0.00 0.00 0.00 86 1014.4
20260831114541 26 101 3.2 8.0 0.00 0.00 0.00 85 1014.1
20260831113046 26 104 0.0 9.7 0.00 0.00 0.00 85 1014.0
20260831111535 26 130 1.6 6.4 0.00 0.00 0.00 85 1013.9
20260831110034 26 113 1.6 4.8 0.00 0.00 0.00 85 1013.9
20260831104537 26 115 1.6 4.8 0.00 0.00 0.00 84 1013.6
20260831103033 26 85 0.0 4.8 0.00 0.00 0.00 84 1013.6
20260831101532 26 131 3.2 6.4 0.00 0.00 0.00 84 1013.8
20260831100036 26 77 0.0 4.8 0.00 0.00 0.00 84 1013.6
20260831094530 26 62 1.6 6.4 0.00 0.00 0.00 84 1013.6
20260831093031 26 167 1.6 4.8 0.00 0.00 0.00 84 1013.6
20260831091533 26 115 1.6 4.8 0.00 0.00 0.00 84 1013.7
20260831090028 26 58 1.6 4.8 0.00 0.00 0.00 84 1013.9
20260831084528 26 84 0.0 3.2 0.00 0.00 0.00 84 1013.8
20260831083028 26 84 0.0 3.2 0.00 0.00 0.00 84 1013.9
20260831081526 26 84 0.0 3.2 0.00 0.00 0.00 84 1014.1
20260831080028 26 40 0.0 3.2 0.00 0.00 0.00 84 1014.2
20260831074525 26 35 0.0 4.8 0.00 0.00 0.00 84 1014.2
20260831073021 26 46 3.2 6.4 0.00 0.00 0.00 84 1014.4
20260831071519 26 129 0.0 6.4 0.00 0.00 0.00 84 1014.7
20260831070018 26 148 0.0 0.0 0.00 0.00 0.00 84 1014.8
20260831064518 26 148 0.0 3.2 0.00 0.00 0.00 83 1015.0
20260831063017 26 148 0.0 3.2 0.00 0.00 0.00 83 1015.0
20260831061515 26 121 3.2 6.4 0.00 0.00 0.00 83 1015.0
20260831060012 26 121 4.8 6.4 0.00 0.00 0.00 82 1015.2
20260831054512 26 181 3.2 9.7 0.00 0.00 0.00 81 1015.4
20260831053011 27 153 4.8 12.9 0.00 0.00 0.00 80 1015.4
20260831051518 27 141 3.2 11.3 0.00 0.00 0.00 79 1015.4
20260831050010 27 132 4.8 9.7 0.00 0.00 0.00 79 1015.5
20260831044610 27 117 4.8 9.7 0.00 0.00 0.00 78 1015.5
20260831043009 27 141 3.2 6.4 0.00 0.00 0.00 77 1015.7
20260831041509 27 123 3.2 9.7 0.00 0.00 0.00 76 1015.5
20260831040008 27 131 4.8 8.0 0.00 0.00 0.00 75 1015.2
20260831034507 28 125 1.6 6.4 0.00 0.00 0.00 74 1015.0
20260831033015 28 121 4.8 11.3 0.00 0.00 0.00 74 1014.6
20260831031513 28 94 4.8 12.9 0.00 0.00 0.00 73 1014.7
20260831030006 28 163 1.6 17.7 0.00 0.00 0.00 74 1014.6
20260831024505 28 121 12.9 19.3 0.00 0.00 0.00 77 1014.7
20260831023006 29 107 12.9 25.7 0.00 0.00 0.00 79 1014.8
20260831021507 30 103 19.3 33.8 0.00 0.00 0.00 78 1014.8
20260831020003 30 71 24.1 29.0 0.00 0.00 0.00 77 1014.6
20260831014502 30 59 19.3 27.4 0.00 0.00 0.00 76 1014.4
20260831013002 30 46 17.7 29.0 0.00 0.00 0.00 75 1014.4
20260831011501 30 47 20.9 30.6 0.00 0.00 0.00 74 1014.4
20260831010100 31 63 20.9 29.0 0.00 0.00 0.00 73 1014.4
20260831004601 31 53 17.7 24.1 0.00 0.00 0.00 72 1014.0
20260831003058 31 49 20.9 27.4 0.00 0.00 0.00 71 1013.6
20260831001558 31 59 17.7 24.1 0.00 0.00 0.00 69 1013.1
20260831000106 32 44 22.5 29.0 0.00 0.00 0.00 68 1013.0
20260830234557 32 11 20.9 29.0 0.00 0.00 0.00 67 1013.1
20260830233056 32 53 20.9 30.6 0.00 0.00 0.00 67 1012.9
20260830231555 32 53 19.3 27.4 0.00 0.00 0.00 65 1012.9
20260830230055 33 48 27.4 38.6 0.00 0.00 0.00 63 1012.6
20260830224556 33 28 20.9 29.0 0.00 0.00 0.00 62 1012.4
20260830223154 33 36 19.3 27.4 0.00 0.00 0.00 60 1012.5
20260830221553 34 351 12.9 24.1 0.00 0.00 0.00 60 1012.2
20260830220056 34 45 16.1 25.7 0.00 0.00 0.00 59 1012.2
20260830214550 34 345 17.7 33.8 0.00 0.00 0.00 59 1012.5
20260830213049 34 355 16.1 29.0 0.00 0.00 0.00 61 1012.5
20260830211550 35 9 14.5 22.5 0.00 0.00 0.00 59 1012.6
20260830210048 35 5 14.5 19.3 0.00 0.00 0.00 60 1012.6
20260830204546 35 49 14.5 22.5 0.00 0.00 0.00 60 1012.7
20260830203045 33 17 14.5 27.4 0.00 0.00 0.00 63 1012.8
20260830201544 35 32 11.3 25.7 0.00 0.00 0.00 59 1013.1
20260830200039 35 133 3.2 11.3 0.00 0.00 0.00 54 1013.1
20260830194537 35 95 4.8 17.7 0.00 0.00 0.00 57 1013.4
20260830193034 35 105 8.0 19.3 0.00 0.00 0.00 56 1013.9
20260830191539 35 88 4.8 19.3 0.00 0.00 0.00 57 1014.0
20260830190031 35 31 4.8 16.1 0.00 0.00 0.00 58 1014.2
20260830184531 35 49 12.9 20.9 0.00 0.00 0.00 57 1014.6
20260830183027 35 77 4.8 16.1 0.00 0.00 0.00 57 1014.8
20260830181524 35 43 12.9 20.9 0.00 0.00 0.00 58 1014.9
20260830180022 33 134 1.6 14.5 0.00 0.00 0.00 60 1015.0
20260830174524 33 159 6.4 12.9 0.00 0.00 0.00 59 1015.2
20260830173018 33 139 1.6 16.1 0.00 0.00 0.00 62 1015.3
20260830171516 33 98 1.6 11.3 0.00 0.00 0.00 63 1015.3
20260830170033 32 131 3.2 14.5 0.00 0.00 0.00 66 1015.6
20260830164511 32 178 9.7 16.1 0.00 0.00 0.00 65 1015.8
20260830163008 32 130 3.2 14.5 0.00 0.00 0.00 64 1015.9
20260830161504 31 161 8.0 17.7 0.00 0.00 0.00 67 1016.0
20260830160004 32 124 4.8 14.5 0.00 0.00 0.00 66 1016.1
20260830154600 31 326 4.8 17.7 0.00 0.00 0.00 69 1016.1
20260830153053 31 127 6.4 16.1 0.00 0.00 0.00 73 1016.2
20260830151602 30 124 3.2 12.9 0.00 0.00 0.00 75 1016.3
20260830150047 30 103 4.8 11.3 0.00 0.00 0.00 77 1016.3
20260830144551 30 82 4.8 11.3 0.00 0.00 0.00 78 1016.2
20260830143039 29 124 6.4 12.9 0.00 0.00 0.00 79 1016.4
20260830141535 28 140 6.4 14.5 0.00 0.00 0.00 80 1016.1
20260830140032 28 68 3.2 14.5 0.00 0.00 0.00 80 1015.8
20260830134528 27 71 3.2 12.9 0.00 0.00 0.00 81 1015.6
20260830133030 27 42 1.6 6.4 0.00 0.00 0.00 80 1015.6
20260830131519 26 56 1.6 6.4 0.00 0.00 0.00 80 1015.5
20260830130016 26 93 3.2 8.0 0.00 0.00 0.00 82 1015.4